Location: Maiden
(35.5760°N, 81.2120°W)
Time: 01:16:04
(UTC-04:00)

Vanguard 2 - Pass Details

Date: 12 August 2020
Orbit: 553 x 2937 km, 32.9° (Epoch: 20 September)

Event Time Altitude Azimuth Distance (km) Brightness Sun altitude
Rises 20:25:14 0° 237° (WSW) 6,619 12.9 -2.4°
Reaches altitude 10° 20:29:34 10° 234° (SW) 5,711 12.5 -3.2°
Maximum altitude 20:47:08 63° 159° (SSE) 2,997 10.3 -6.6°
Drops below altitude 10° 21:01:10 10° 83° (E) 4,688 11.0 -9.2°
Enters shadow 21:04:17 - 80° (E) 5,413 11.4 -9.7°
Sets 21:04:19 0° 80° (E) 5,421 - -9.7°
